sat.trackr.live / text

‹ back to catalog

STARLINK-36491

NORAD 67310 · 2026-002F

PAYLOAD ACTIVE UNKNOWN

§ Identity

Operator
Country
US
Launch date
2026-01-04
Launch site
AFETR
Launch vehicle
Mass (kg)
RCS (m²)

Purposes: comms

External: N2YO · Heavens-Above · Gunter

§ Orbital elements

Epoch: 2026-05-24T17:13:00.525216Z

Period
94.27 min
Inclination
42.9997°
Eccentricity
0.0001955
Mean motion
15.27592084 rev/d
Perigee alt
481.7 km
Apogee alt
484.4 km
Semi-major
6,861.1 km
B*
4.8836e-4
RAAN
256.1465°
Arg perigee
272.9608°
Mean anomaly
87.1020°
Rev number
2,270

§ Raw data

STARLINK-364911 67310U 26002F   26144.71736719  .00013206  00000+0  48836-3 0  99982 67310  42.9997 256.1465 0001955 272.9608  87.1020 15.27592084 22704

JSON: /api/v1/satellites/67310 · /tle

For live sub-satellite position, see the globe view (requires WebGL).

§ Visibility from observer

Set your observer location to see the next 7 days of passes ≥ 10°. The values pass through the URL so the page stays shareable.

No JS? Fill the form by hand. The geolocation button needs JavaScript.